Weather History for KSTF - July, 2012

Change the Weather History Date:

Wednesday, July 11, 2012

  Actual Average Record
Temperature  
Mean Temperature 72 °F -  
Max Temperature 75 °F 92 °F 87 °F (2013)
Min Temperature 69 °F 71 °F 68 °F (2014)
Cooling Degree Days 7    
Growing Degree Days 22 (Base 50)    
Moisture  
Dew Point 71 °F    
Average Humidity 95    
Maximum Humidity 100    
Minimum Humidity 89    
Precipitation  
Precipitation 2.45 in - - ()
Sea Level Pressure  
Sea Level Pressure 29.97 in    
Wind  
Wind Speed 4 mph (SSE)    
Max Wind Speed 8 mph    
Max Gust Speed -    
Visibility 7 miles    
Events Rain , Thunderstorm    
Averages and records for this station are not official NWS values.
T = Trace of Precipitation, MM = Missing Value Source: NWS Daily Summary

Daily Weather History Graph

Daily Weather History Graph

Search for Another Location

Airport or City:

Trip Planner

Search our weather history database for the weather conditions in past years. The results will help you decide how hot, cold, wet, or windy it might be!

Date:

Astronomy

Jul. 11, 2012 Rise Set
Actual Time 5:54 AM CDT 8:07 PM CDT
Civil Twilight 5:26 AM CDT 8:35 PM CDT
Nautical Twilight 4:51 AM CDT 9:10 PM CDT
Astronomical Twilight 4:13 AM CDT 9:47 PM CDT
Moon 12:19 AM CDT (7/11) 1:49 PM CDT (7/11)
Length of Visible Light 15h 09m
Length of Day
14h 12m
Last Quarter, 44% of the Moon is Illuminated
Jul 11
Last Quarter
Jul 18
New
Jul 26
First Quarter
Aug 1
Full
Aug 9
Last Quarter

Hourly Weather History & Observations

Time (CDT) Temp. Dew Point Humidity Pressure Visibility Wind Dir Wind Speed Gust Speed Precip Events Conditions
12:15 AM 71.6 °F 69.8 °F 94% 29.97 in 10.0 mi SE 3.5 mph - N/A   Overcast
12:35 AM 71.6 °F 69.8 °F 94% 29.96 in 10.0 mi SE 3.5 mph - N/A   Overcast
12:55 AM 71.6 °F 69.8 °F 94% 29.96 in 10.0 mi SSE 4.6 mph - N/A   Overcast
1:15 AM 71.6 °F 69.8 °F 94% 29.96 in 10.0 mi SSE 4.6 mph - N/A   Overcast
1:35 AM 71.6 °F 69.8 °F 94% 29.96 in 10.0 mi SSE 5.8 mph - N/A   Overcast
1:55 AM 71.6 °F 69.8 °F 94% 29.96 in 10.0 mi SSE 3.5 mph - N/A   Overcast
2:15 AM 71.6 °F 69.8 °F 94% 29.96 in 10.0 mi SSE 4.6 mph - N/A   Overcast
2:35 AM 71.6 °F 69.8 °F 94% 29.96 in 10.0 mi SE 4.6 mph - N/A   Overcast
3:15 AM 71.6 °F 69.8 °F 94% 29.96 in 10.0 mi SE 6.9 mph - N/A   Overcast
3:35 AM 71.6 °F 69.8 °F 94% 29.96 in 10.0 mi SSE 5.8 mph - N/A   Overcast
3:55 AM 71.6 °F 69.8 °F 94% 29.96 in 10.0 mi SSE 3.5 mph - N/A   Overcast
4:15 AM 71.6 °F 69.8 °F 94% 29.96 in 10.0 mi Calm Calm - N/A   Overcast
4:35 AM 71.6 °F 69.8 °F 94% 29.96 in 10.0 mi South 3.5 mph - N/A   Overcast
5:35 AM 71.6 °F 69.8 °F 94% 29.96 in 10.0 mi SE 3.5 mph - N/A   Mostly Cloudy
5:55 AM 71.6 °F 69.8 °F 94% 29.97 in 7.0 mi SE 4.6 mph - N/A   Overcast
6:15 AM 71.6 °F 69.8 °F 94% 29.98 in 7.0 mi SE 3.5 mph - N/A   Overcast
6:35 AM 71.6 °F 69.8 °F 94% 29.98 in 10.0 mi ESE 3.5 mph - N/A   Overcast
6:55 AM 71.6 °F 69.8 °F 94% 29.98 in 7.0 mi ESE 3.5 mph - N/A   Overcast
7:15 AM 71.6 °F 71.6 °F 100% 29.98 in 7.0 mi SE 5.8 mph - N/A   Overcast
7:35 AM 71.6 °F 69.8 °F 94% 29.99 in 7.0 mi SE 5.8 mph - N/A   Overcast
8:15 AM 73.4 °F 71.6 °F 94% 29.99 in 7.0 mi SE 6.9 mph - N/A   Overcast
8:35 AM 71.6 °F 71.6 °F 100% 29.99 in 2.0 mi SE 6.9 mph - 0.10 in Rain Rain
9:15 AM 73.4 °F 71.6 °F 94% 30.00 in 10.0 mi SSE 4.6 mph - N/A   Overcast
9:35 AM 75.2 °F 71.6 °F 89% 29.99 in 10.0 mi SE 8.1 mph - N/A   Mostly Cloudy
9:55 AM 75.2 °F 71.6 °F 89% 29.99 in 10.0 mi ESE 3.5 mph - N/A   Overcast
10:15 AM 75.2 °F 71.6 °F 89% 30.00 in 10.0 mi SE 5.8 mph - N/A   Overcast
10:55 AM 73.4 °F 71.6 °F 94% 30.00 in 5.0 mi East 3.5 mph - N/A   Drizzle
11:15 AM 73.4 °F 73.4 °F 100% 29.99 in 4.0 mi Calm Calm - 0.01 in Rain Rain
11:35 AM 73.4 °F 71.6 °F 94% 29.99 in 1.2 mi Calm Calm - 0.08 in Rain Heavy Rain
12:15 PM 73.4 °F 71.6 °F 94% 29.99 in 2.5 mi Calm Calm - 0.08 in Rain Rain
12:35 PM 73.4 °F 71.6 °F 94% 29.99 in 7.0 mi SE 6.9 mph - 0.10 in Rain Light Rain
12:55 PM 73.4 °F 71.6 °F 94% 29.98 in 3.0 mi Calm Calm - 0.16 in Rain Light Rain
1:15 PM 73.4 °F 73.4 °F 100% 29.98 in 5.0 mi Calm Calm - 0.01 in Rain , Thunderstorm Thunderstorms and Rain
1:35 PM 73.4 °F 71.6 °F 94% 29.99 in 1.8 mi SSW 3.5 mph - 0.39 in Rain , Thunderstorm Heavy Thunderstorms and Rain
1:55 PM 73.4 °F 71.6 °F 94% 29.98 in 2.5 mi South 8.1 mph - 0.55 in Rain Heavy Rain
2:15 PM 71.6 °F 71.6 °F 100% 29.97 in 2.0 mi South 8.1 mph - 0.27 in Rain Heavy Rain
2:35 PM 71.6 °F 71.6 °F 100% 29.97 in 3.0 mi South 5.8 mph - 0.39 in Rain Rain
2:55 PM 71.6 °F 69.8 °F 94% 29.97 in 4.0 mi South 3.5 mph - 0.47 in Rain Rain
3:15 PM 71.6 °F 69.8 °F 94% 29.97 in 7.0 mi SW 4.6 mph - 0.02 in Rain Heavy Rain
3:35 PM 71.6 °F 69.8 °F 94% 29.96 in 2.0 mi Calm Calm - 0.16 in Rain Heavy Rain
3:55 PM 71.6 °F 71.6 °F 100% 29.96 in 3.0 mi SSW 4.6 mph - 0.25 in Rain Heavy Rain
4:15 PM 71.6 °F 69.8 °F 94% 29.97 in 2.5 mi SW 6.9 mph - 0.16 in Rain Heavy Rain
4:35 PM 71.6 °F 69.8 °F 94% 29.97 in 1.8 mi SSW 6.9 mph - 0.38 in Rain Heavy Rain
4:55 PM 69.8 °F 69.8 °F 100% 29.97 in 4.0 mi Calm Calm - 0.43 in Rain Rain
5:15 PM 71.6 °F 69.8 °F 94% 29.97 in 2.0 mi South 5.8 mph - 0.10 in Rain Heavy Rain
5:35 PM 71.6 °F 69.8 °F 94% 29.97 in 1.2 mi Calm Calm - 0.32 in Rain Heavy Rain
6:15 PM 71.6 °F 69.8 °F 94% 29.96 in 4.0 mi ESE 3.5 mph - 0.05 in Rain Rain
6:35 PM 71.6 °F 69.8 °F 94% 29.96 in 7.0 mi ESE 4.6 mph - 0.08 in Rain Light Rain
6:55 PM 71.6 °F 69.8 °F 94% 29.96 in 10.0 mi ESE 5.8 mph - 0.09 in   Light Drizzle
7:15 PM 71.6 °F 71.6 °F 100% 29.96 in 10.0 mi Calm Calm - N/A Rain Rain
7:35 PM 71.6 °F 71.6 °F 100% 29.96 in 10.0 mi Calm Calm - N/A   Light Drizzle
7:55 PM 71.6 °F 71.6 °F 100% 29.96 in 10.0 mi Calm Calm - N/A   Mostly Cloudy
8:15 PM 71.6 °F 71.6 °F 100% 29.97 in 10.0 mi Calm Calm - N/A   Overcast
8:35 PM 71.6 °F 71.6 °F 100% 29.97 in 10.0 mi Calm Calm - N/A   Light Drizzle
8:55 PM 71.6 °F 69.8 °F 94% 29.97 in 10.0 mi Calm Calm - N/A   Overcast
9:15 PM 71.6 °F 69.8 °F 94% 29.97 in 10.0 mi Calm Calm - N/A   Overcast
9:55 PM 71.6 °F 69.8 °F 94% 29.98 in 10.0 mi Calm Calm - N/A   Overcast
10:15 PM 71.6 °F 69.8 °F 94% 29.99 in 10.0 mi SSE 3.5 mph - N/A Rain Rain
10:35 PM 71.6 °F 69.8 °F 94% 29.99 in 10.0 mi SSE 4.6 mph - N/A   Light Drizzle
10:55 PM 71.6 °F 69.8 °F 94% 29.99 in 10.0 mi SSE 3.5 mph - N/A Rain Light Rain
11:15 PM 71.6 °F 69.8 °F 94% 29.98 in 5.0 mi SSE 4.6 mph - N/A   Light Drizzle
11:35 PM 69.8 °F 69.8 °F 100% 29.98 in 4.0 mi SSE 5.8 mph - N/A   Light Drizzle
11:55 PM 69.8 °F 69.8 °F 100% 29.97 in 4.0 mi South 3.5 mph - N/A Rain Light Rain